Location: Unnamed
(25.2826°S, 57.6099°W)
Time: 23:21:56
(UTC-04:00)

BlueWalker 3 - Pass Details

Date: 21 January 2026
Orbit: 451 x 460 km, 53.2° (Epoch: 18 February)

Event Time Altitude Azimuth Distance (km) Brightness Sun altitude
Exits shadow 04:38:12 - 345° (NNW) 2,165 4.8 -9.1°
Reaches altitude 10° 04:39:43 10° 353° (N) 1,598 4.2 -8.8°
Maximum altitude 04:42:54 29° 55° (NE) 868 3.5 -8.1°
Drops below altitude 10° 04:46:07 10° 117° (ESE) 1,620 6.3 -7.5°
Sets 04:48:26 0° 128° (SE) 2,503 7.5 -7.0°
